Location: Hurstbourne Priors
(51.2000°N, 1.3667°W)
Time: 22:43:50
(UTC+00:00)

Altair - Pass Details

Date: 16 April 2021
Orbit: 1501 x 1683 km, 47.2° (Epoch: 13 May)

Event Time Altitude Azimuth Distance (km) Brightness Sun altitude
Rises 08:40:43 0° 250° (WSW) 4,824 9.7 31.7°
Reaches altitude 10° 08:43:53 10° 248° (WSW) 3,814 9.3 32.2°
Maximum altitude 08:53:25 67° 169° (S) 1,665 8.6 33.5°
Drops below altitude 10° 09:02:36 10° 90° (E) 3,686 10.5 34.7°
Sets 09:05:37 0° 88° (E) 4,655 10.7 35.1°
